Flight Information

DEPARTURE
HAWTHORNE, CA
Elevation:
65
Runways:
7/25 - 4884x100 - ASPH-G
ATIS:
118.4 310-675-7945
Ground:
125.1
Tower:
121.1
DESTINATION
,
Elevation:
TPA:
1000 (est.)


6791.4 NM73° True-14° Var59° HDG

Flight Plan:
(click to file on line)

1. Type
2. Aircraft Identification
3. Aircraft Type / Special Equipment
4. True Airspeed
kts
5. Departure Airport
(ICAO code)
6. Arriving Airport
(ICAO code)
7. Cruising Altitude
ft
8. Alternate Airport
(ICAO code)
9. Route of Flight
10. Remarks


00:00:00 Departure ATIS: Destination ATIS:

Clearance Limit:
Route:
Altitude: Expect in minutes
Frequency:
Transponder: (7500 Hijack / 7600 Lost Comms / 7700 Emergency)


KHHR 281128Z AUTO 00000KT 8SM FU SCT011 19/17 A2987 RMK AO2 T01940167
Time: 2020-09-28T11:28:00Z
1601294062
Winds: calm
Visibility: 8.0 sm
Clouds (AGL): SCT 1100
Temperature: 19.4 C
Dew Point: 16.7 C
Pressure: 29.870079 in Hgbr


Notes:

Data extracted from FAA Digital Chart Supplement. Effective: 0901Z Thursday, Sep 10, 2020 to 0901Z Thursday, Nov 5, 2020
Current ATIS data is provided courtisy of PilotEdge.